Ephrata, WA
on Friday, February 22, 2013

Friday
Previous Day Next Day
Daily Summary
 ActualAverageRecord
Temperature
Mean Temperature °F 36°F  
Max Temperature 49°F 45°F 62°F (1988)
Min Temperature 31°F 27°F 13°F (1985)
Degree Days
Heating Degree Days 25 29  
Month to date heating degree days 637 695  
Since 1 July heating degree days 4073 4403  
Cooling Degree Days 0 0  
Month to date cooling degree days 0 0  
Year to date cooling degree days 0 0  
Moisture
Dew Point 29°F   
Average Humidity 68    
Maximum Humidity 92    
Minimum Humidity 44    
Precipitation
Precipitation 0.00 in 0.02 in 0.26 in (1989)
Month to date precipitation T 0.57  
Year to date precipitation 0.19 1.48  
Wind
Wind Speed 12 mph   
Max Wind Speed 26 mph   
Max Gust Speed 32 mph   
Visibility 10 miles   
Events     

Key: T is trace of precipitation, MM is missing value
Source: NWS Daily Summary
Time(PST)TemperatureDew PointHumidity Pressure Visibility Wind DirectionWind SpeedGust SpeedPrecipitationEvents Conditions
12:53 AM 33.1°F 28.9°F 85% 29.97 in 10.0 miles SSW 10.4 mph - N/A   Clear
1:53 AM 34.0°F 28.9°F 82% 29.97 in 10.0 miles Calm Calm - N/A   Overcast
2:53 AM 37.9°F 28.9°F 70% 29.94 in 10.0 miles SSW 9.2 mph - N/A   Overcast
3:53 AM 36.0°F 28.9°F 76% 29.94 in 10.0 miles Calm Calm - N/A   Clear
4:53 AM 32.0°F 28.9°F 88% 29.95 in 10.0 miles NNW 5.8 mph - N/A   Overcast
5:53 AM 30.9°F 28.0°F 89% 29.94 in 10.0 miles NE 6.9 mph - N/A   Clear
6:53 AM 32.0°F 28.0°F 85% 29.94 in 10.0 miles ENE 3.5 mph - N/A   Overcast
7:53 AM 33.1°F 28.9°F 85% 29.92 in 8.0 miles South 3.5 mph - N/A   Overcast
8:53 AM 37.9°F 30.0°F 73% 29.90 in 10.0 miles South 13.8 mph - N/A   Overcast
9:53 AM 39.0°F 30.9°F 73% 29.88 in 10.0 miles South 10.4 mph - N/A   Overcast
10:53 AM 41.0°F 32.0°F 70% 29.83 in 10.0 miles South 12.7 mph - N/A   Overcast
11:53 AM 43.0°F 32.0°F 65% 29.79 in 10.0 miles South 12.7 mph - N/A   Overcast
12:53 PM 46.0°F 34.0°F 63% 29.74 in 10.0 miles South 20.7 mph 28.8 mph N/A   Mostly Cloudy
1:53 PM 46.9°F 34.0°F 61% 29.68 in 10.0 miles South 21.9 mph 29.9 mph N/A   Mostly Cloudy
2:53 PM 48.0°F 35.1°F 61% 29.65 in 10.0 miles South 17.3 mph 26.5 mph N/A   Mostly Cloudy
3:53 PM 48.0°F 32.0°F 54% 29.64 in 10.0 miles South 17.3 mph - N/A   Mostly Cloudy
4:53 PM 46.9°F 32.0°F 56% 29.64 in 10.0 miles South 19.6 mph - N/A   Overcast
5:53 PM 45.0°F 32.0°F 60% 29.64 in 10.0 miles South 16.1 mph - N/A   Mostly Cloudy
6:53 PM 43.0°F 32.0°F 65% 29.64 in 10.0 miles SSW 13.8 mph - N/A   Partly Cloudy
7:53 PM 37.0°F 30.9°F 79% 29.66 in 10.0 miles SSW 17.3 mph - N/A   Clear
8:53 PM 39.0°F 26.1°F 60% 29.68 in 10.0 miles WSW 12.7 mph - N/A   Mostly Cloudy
9:53 PM 37.9°F 21.0°F 51% 29.71 in 10.0 miles WSW 12.7 mph - N/A   Clear
10:53 PM 39.0°F 19.0°F 45% 29.74 in 10.0 miles West 17.3 mph 23.0 mph N/A   Clear
11:53 PM 35.1°F 19.9°F 54% 29.76 in 10.0 miles SSE 3.5 mph - N/A   Clear
Moon Phase
Feb. 22 Feb. 25 Mar. 04 Mar. 11 Mar. 19
Sunrise:06:50 AM (PST) Moon Rise:02:42 PM (PST)2/22
Sunset:05:33 PM (PST) Moon Set:04:47 AM (PST)2/22

Copyright © 2014 The Weather Underground, Inc.